This demonstration page uses our WeatherBlox Daily Observations layout. Learn more.

Left ArrowRight Arrow

47.50024, -111.30081

Hourly Observations for May 10, 2015

Temp ( °F °C ) Dew Point ( °F °C ) Humidity (%) Winds ( mph kmh ) Pressure ( in mb ) Visibility ( mi km ) Precip ( " mm )
12:53 am 00:53 Clear 38 3.3 24 -4.4 57 57 S 9 15 30.24 1024 10 16 0.00 0.00
1:53 am 01:53 Clear 34 1.1 24 -4.4 67 67 S 5 7 30.24 1024 10 16 0.00 0.00
2:53 am 02:53 Clear 30 -1.1 22 -5.6 72 72 WSW 3 6 30.24 1024 10 16 0.00 0.00
3:53 am 03:53 Clear 32 0 24 -4.4 73 73 W 3 6 30.23 1024 10 16 0.00 0.00
4:53 am 04:53 Clear 33 0.6 25 -3.9 72 72 WSW 3 6 30.23 1024 10 16 0.00 0.00
5:53 am 05:53 Clear 28 -2.2 23 -5 81 81 SSW 9 15 30.24 1024 10 16 0.00 0.00
6:53 am 06:53 Sunny 33 0.6 26 -3.3 75 75 SSW 3 6 30.24 1024 10 16 0.00 0.00
7:53 am 07:53 Sunny 42 5.6 28 -2.2 58 58 SW 6 9 30.23 1024 10 16 0.00 0.00
8:53 am 08:53 Sunny 45 7.2 26 -3.3 48 48 Calm 30.24 1024 10 16 0.00 0.00
9:53 am 09:53 Sunny 49 9.4 25 -3.9 39 39 ESE 3 6 30.23 1024 10 16 0.00 0.00
10:53 am 10:53 Sunny 54 12.2 20 -6.7 26 26 VRB 7 11 30.21 1023 10 16 0.00 0.00
11:53 am 11:53 Sunny 55 12.8 19 -7.2 24 24 undefined N/A 30.21 1023 10 16 0.00 0.00
12:53 pm 12:53 Sunny 57 13.9 16 -8.9 20 20 E 8 13 30.19 1022 10 16 0.00 0.00
1:53 pm 13:53 Sunny 59 15 16 -8.9 18 18 Calm 30.18 1022 10 16 0.00 0.00
2:53 pm 14:53 Sunny 60 15.6 12 -11.1 15 15 VRB 3 6 30.18 1022 10 16 0.00 0.00
3:53 pm 15:53 Sunny 59 15 6 -14.4 12 12 VRB 5 7 30.16 1022 10 16 0.00 0.00
4:53 pm 16:53 Sunny 59 15 6 -14.4 12 12 VRB 6 9 30.15 1021 10 16 0.00 0.00
5:53 pm 17:53 Sunny 61 16.1 9 -12.8 13 13 NNE 10 17 30.15 1021 10 16 0.00 0.00
6:53 pm 18:53 Sunny 57 13.9 8 -13.3 14 14 ESE 6 9 30.14 1021 10 16 0.00 0.00
7:53 pm 19:53 Sunny 55 12.8 11 -11.7 17 17 ESE 7 11 30.11 1020 10 16 0.00 0.00
8:53 pm 20:53 Clear 50 10 13 -10.6 22 22 E 9 15 30.12 1020 10 16 0.00 0.00
9:53 pm 21:53 Clear 45 7.2 17 -8.3 33 33 SE 9 15 30.13 1020 10 16 0.00 0.00
10:53 pm 22:53 Clear 45 7.2 16 -8.9 31 31 SSE 8 13 30.10 1019 10 16 0.00 0.00
11:53 pm 23:53 Clear 40 4.4 17 -8.3 40 40 SSW 9 15 30.10 1019 10 16 0.00 0.00

Powered by AerisWeather